Location: Pompeys Pillar
(45.9913°N, 107.9528°W)
Time: 04:36:31
(UTC+00:00)

Tiros 1 - Pass Details

Date: 01 June 2022
Orbit: 629 x 663 km, 48.4° (Epoch: 30 June)

Event Time Altitude Azimuth Distance (km) Brightness Sun altitude
Rises 09:52:22 0° 287° (WNW) 2,922 10.3 -12.6°
Reaches altitude 10° 09:54:41 10° 288° (WNW) 2,017 9.5 -12.3°
Maximum altitude 09:59:20 88° 20° (NNE) 642 7.1 -11.8°
Drops below altitude 10° 10:04:01 10° 108° (ESE) 2,030 10.0 -11.3°
Sets 10:06:21 0° 109° (ESE) 2,944 10.9 -11.0°
